Theta_e
324 319 321 321 320 321 323 326 357 361 358 358 356 354 355 353 354 357 346 341 341 345 343 344 348 350 349 348 347 346 347 347 348 350 350 350 345 344 344 347 349 348 349 348
320 321 320 321 321 322 322 328 359 356 355 356 358 361 359 356 356 352 345 340 341 343 344 344 347 348 348 349 348 347 347 348 345 349 351 351 350 349 348 349 349 349 350 346
321 323 323 324 323 322 321 323 354 357 354 354 355 356 358 355 354 348 345 340 341 342 344 343 346 347 346 347 349 349 348 345 344 349 351 352 352 350 349 349 350 349 350 348
322 323 324 324 323 321 318 321 344 354 357 363 353 355 353 351 356 352 348 344 341 340 342 343 345 346 346 347 349 348 348 346 344 344 350 351 350 350 349 348 349 350 351 350
321 322 322 323 323 321 321 322 337 350 350 355 358 357 351 352 360 357 354 348 346 342 342 343 344 346 347 347 349 348 347 347 345 346 351 350 349 346 350 348 350 351 352 350
320 321 319 319 321 322 323 339 341 342 345 351 350 355 358 358 359 358 353 349 349 347 342 341 342 346 347 348 349 349 348 348 347 352 353 350 347 343 348 351 351 352 351 351
323 323 321 320 321 321 324 324 328 346 353 348 348 353 348 354 356 356 357 355 352 349 349 341 340 347 347 347 350 350 349 348 347 348 352 352 348 348 349 350 352 352 353 351
324 324 323 323 321 322 324 324 328 338 340 340 345 355 354 348 346 348 349 349 349 349 351 347 344 345 347 347 349 352 351 349 348 346 352 352 351 348 349 352 350 348 348 349
323 325 325 323 324 321 323 325 323 328 328 339 349 350 345 351 349 347 345 351 352 349 349 347 346 348 347 347 350 350 351 349 348 346 352 351 351 350 350 350 348 347 348 348
323 326 324 326 323 324 323 326 332 326 334 343 351 352 353 352 362 358 350 353 352 345 348 348 346 346 346 346 349 350 351 352 350 349 351 351 351 351 349 350 349 350 352 352
321 321 323 323 324 324 327 329 327 325 326 337 353 352 356 359 358 358 356 352 347 345 344 343 345 347 346 347 344 344 348 352 351 351 352 354 350 353 353 348 352 350 353 352
323 319 322 324 323 323 326 328 325 329 330 343 344 357 352 350 349 349 350 347 347 346 346 346 343 343 348 345 345 340 342 347 351 352 350 352 350 349 349 348 354 354 351 351
320 320 326 324 319 319 320 321 319 320 328 334 340 352 349 348 347 346 348 347 345 343 341 342 342 343 343 343 339 341 341 342 340 347 347 349 351 351 351 349 348 354 352 351
321 316 322 326 321 322 321 320 321 318 325 339 346 352 352 349 348 346 343 340 339 341 340 338 337 339 341 343 344 342 343 342 339 344 347 342 342 349 350 351 349 349 353 353
318 321 320 320 321 320 320 321 321 323 329 331 348 350 351 348 342 337 335 332 331 332 332 331 331 333 336 338 340 342 344 346 346 342 343 344 341 345 347 346 350 354 351 353
316 321 321 321 321 320 321 321 329 335 343 344 346 347 342 336 333 332 331 329 328 328 327 325 325 326 328 333 333 333 335 342 343 343 344 343 345 340 337 345 341 347 352 353
320 320 323 325 321 320 320 321 325 339 340 344 347 343 338 336 334 331 329 328 327 324 322 322 322 323 325 331 331 330 330 329 332 336 339 343 345 343 342 341 340 344 350 351
314 319 319 323 319 323 319 318 326 339 339 340 339 338 336 332 328 327 324 322 321 319 317 316 321 323 323 325 331 330 330 329 330 330 330 329 331 336 341 343 345 346 348 350
311 314 318 320 321 320 323 319 323 335 336 337 334 329 325 323 322 322 321 318 316 315 315 318 319 320 321 323 326 324 324 324 324 324 326 329 327 330 331 330 330 337 342 344
312 311 316 319 323 323 321 319 319 323 337 332 328 325 323 322 324 321 318 316 315 315 317 317 318 319 320 322 321 319 318 319 319 320 322 324 326 328 327 324 324 322 326 331
317 316 318 318 321 323 319 318 320 324 323 328 329 324 322 321 319 317 317 314 314 315 316 315 315 315 315 315 316 315 315 315 315 317 319 321 322 323 325 327 326 322 324 324
322 319 321 319 321 324 321 321 321 319 315 319 320 317 316 316 315 314 313 313 314 314 314 314 313 313 313 313 313 313 313 312 312 316 318 319 321 322 322 322 325 325 324 322
320 319 321 322 321 317 318 317 315 313 314 315 316 315 315 315 313 312 311 311 312 312 312 312 311 310 310 311 311 311 312 311 311 313 315 317 318 318 319 320 321 325 325 323
317 316 319 320 320 320 318 315 315 313 312 313 311 312 313 313 312 311 310 310 310 311 311 311 310 308 308 308 308 309 308 309 308 310 310 311 312 314 314 314 315 316 317 317
315 316 315 316 318 319 317 316 314 314 312 311 310 311 310 310 311 309 308 309 310 310 309 309 309 308 307 307 308 307 306 306 306 306 306 306 308 310 311 312 312 313 315 315
315 317 315 315 315 314 315 314 314 313 313 311 310 310 310 310 308 309 309 309 310 309 309 308 308 307 307 307 306 306 306 306 305 304 304 306 306 306 305 305 307 308 309 311
Wind_Speed
4 4 5 8 5 7 3 5 4 6 8 7 7 14 20 17 14 14 14 11 10 17 23 29 33 35 36 33 32 32 25 20 23 17 12 14 15 13 15 14 14 13 13 13
5 5 8 7 7 6 5 3 5 8 8 8 6 14 19 19 21 17 14 10 14 13 14 22 28 33 33 34 31 31 26 21 18 16 14 16 15 10 15 13 13 13 11 12
6 7 9 6 7 8 8 6 9 6 9 4 6 2 4 3 10 12 12 9 16 18 17 15 22 30 31 31 30 35 29 21 20 18 12 15 14 14 14 15 12 13 12 14
6 6 5 7 8 8 7 9 13 18 8 5 6 4 5 7 9 13 15 11 15 14 16 17 21 25 28 32 31 35 28 22 19 17 10 16 18 14 13 15 13 12 13 12
8 6 7 7 13 8 10 6 10 17 5 8 2 3 2 9 9 15 8 12 12 17 17 19 22 28 28 34 33 35 30 23 20 17 12 13 14 12 12 11 14 14 15 13
9 6 7 9 9 10 7 4 8 7 4 2 10 6 4 9 17 21 11 10 13 12 15 18 26 29 29 31 33 35 33 26 23 20 12 14 13 14 13 13 16 17 16 14
5 7 10 6 7 4 5 6 1 2 1 6 13 4 6 11 16 22 17 11 9 10 5 11 16 25 26 28 29 33 34 30 25 24 16 16 14 14 14 16 20 18 18 16
3 6 5 3 8 6 3 8 5 5 5 2 10 6 6 12 9 5 7 8 7 9 8 8 9 18 28 30 31 29 34 31 27 25 20 18 14 14 17 19 21 18 19 19
3 5 5 3 5 9 3 2 6 2 1 4 4 1 7 9 4 7 7 8 10 10 14 7 8 22 16 11 13 24 34 32 29 30 24 19 18 17 17 18 20 18 18 17
5 3 2 5 1 3 6 3 3 4 1 3 3 4 2 4 6 6 7 7 9 13 12 11 8 17 26 25 16 4 16 24 26 29 29 27 24 22 19 15 18 18 18 20
4 2 7 3 1 6 4 3 5 4 4 4 4 2 3 9 10 8 9 8 8 9 9 7 3 16 23 20 13 14 4 15 19 21 26 30 30 26 22 20 17 19 19 18
1 4 1 6 5 4 5 5 5 5 3 3 4 2 6 13 12 10 9 13 10 11 9 7 9 10 6 20 20 22 19 7 6 12 22 24 28 29 28 26 22 16 22 22
5 4 3 7 7 8 5 4 5 5 2 4 5 3 7 14 11 8 13 11 9 10 11 10 13 17 14 10 15 24 24 16 5 3 4 10 18 23 25 26 25 21 19 22
3 4 4 3 5 3 5 9 1 6 3 3 3 16 11 14 18 14 7 10 10 9 12 11 13 17 14 13 12 15 11 13 9 7 10 9 12 9 17 25 24 25 23 23
4 3 4 4 7 2 5 10 7 3 5 5 14 17 13 15 15 13 19 12 13 13 13 13 10 11 13 15 14 12 10 6 9 13 16 20 14 14 11 11 14 16 23 24
6 3 6 7 6 7 5 15 6 7 9 12 17 12 16 18 16 15 15 15 13 13 12 11 13 16 13 16 15 15 16 13 10 9 5 8 12 18 10 21 15 9 12 20
4 3 3 3 7 5 6 6 6 3 3 17 11 20 23 20 19 15 15 13 11 12 12 9 10 16 21 16 17 19 18 18 18 16 15 14 9 4 6 11 13 15 16 16
3 3 3 3 5 3 5 6 5 10 6 18 21 19 17 18 13 11 10 14 11 11 11 10 18 21 21 21 17 16 16 18 18 18 19 19 16 11 6 4 3 4 9 12
5 4 2 3 2 4 7 8 3 7 5 17 21 19 20 21 20 10 9 11 12 9 16 21 24 22 20 21 20 20 19 19 20 21 20 18 18 15 12 12 11 9 8 8
6 6 4 2 2 3 2 3 10 7 2 3 19 21 24 19 12 7 10 16 17 22 24 26 25 24 22 19 17 17 17 16 18 18 17 16 17 15 15 14 13 13 11 7
4 3 3 0 2 1 4 4 2 4 7 7 13 17 11 6 6 11 15 16 22 25 27 27 25 23 18 15 16 18 15 16 13 11 10 12 13 14 13 13 14 15 14 13
2 1 0 0 2 2 5 4 5 4 4 8 9 8 14 18 17 14 13 13 21 22 25 25 26 22 18 15 12 16 17 12 10 9 10 11 15 15 14 15 14 15 15 16
1 5 4 4 4 5 4 6 4 4 8 5 14 12 18 17 15 14 11 12 18 24 23 20 21 21 19 17 14 15 13 14 14 12 13 14 14 15 16 18 20 16 17 17
4 1 3 4 5 3 4 4 6 9 10 7 6 7 10 13 13 12 11 14 16 21 21 19 17 16 14 12 11 11 11 10 12 14 16 15 15 16 17 17 18 19 21 25
4 2 3 1 4 3 3 3 6 7 8 9 8 8 8 12 11 12 9 16 20 21 18 15 13 11 9 9 10 11 11 12 13 13 16 18 17 18 19 17 17 17 15 17
2 1 3 4 3 4 7 6 8 8 7 9 8 7 10 18 8 17 15 22 24 21 18 16 12 10 7 6 7 8 9 10 11 13 15 15 15 19 21 23 25 19 20 21
Wind_Direction
204 102 202 233 194 231 296 354 62 91 101 131 113 148 187 192 205 225 188 183 157 160 158 152 157 162 167 169 169 172 171 167 173 175 188 186 180 172 174 175 172 168 172 176
23 193 217 229 251 264 267 136 104 75 97 57 150 144 181 204 211 209 178 173 157 156 162 156 153 161 168 170 173 174 177 172 173 182 184 184 184 175 167 168 170 168 167 176
167 232 206 205 258 271 259 168 182 152 109 28 263 73 139 279 208 199 185 171 167 157 163 161 156 162 166 162 170 174 175 174 176 188 192 195 184 156 157 171 180 180 178 186
223 250 208 217 244 207 257 212 169 146 134 171 222 217 228 171 249 191 193 175 175 167 163 165 161 164 167 165 168 176 177 179 189 187 192 186 176 171 186 185 187 193 187 176
239 219 200 203 227 202 239 203 183 165 125 118 259 118 263 146 197 206 201 175 165 178 161 168 165 169 170 171 172 176 179 185 191 189 205 190 182 176 174 190 197 205 195 186
245 250 175 214 238 223 232 87 66 57 59 86 194 161 209 181 177 206 198 199 166 168 166 168 166 170 174 175 176 179 182 186 195 196 205 212 191 186 186 192 196 198 198 199
298 249 248 208 250 349 106 76 89 102 250 229 159 179 245 185 180 195 178 171 137 85 55 152 169 172 172 174 179 184 186 190 198 203 204 206 209 210 203 201 188 193 194 199
215 313 187 215 175 178 140 141 154 184 172 181 151 202 268 194 171 142 142 136 102 86 62 82 112 178 175 178 181 183 191 195 197 202 207 208 209 215 207 196 204 205 205 209
13 271 324 192 194 129 254 94 194 96 89 96 182 19 29 62 77 134 109 115 149 122 114 88 96 124 132 141 184 191 196 201 200 200 208 209 210 211 214 218 215 213 208 212
233 246 275 289 107 33 135 168 67 20 250 128 347 64 310 84 78 58 127 143 132 116 108 117 101 92 94 75 63 189 210 210 211 208 206 210 214 216 218 225 221 216 222 225
41 97 296 27 140 169 37 61 58 112 118 161 142 6 292 103 93 87 83 113 100 89 99 92 107 125 116 97 31 27 9 214 222 226 224 216 216 218 222 228 231 235 232 225
29 134 278 234 277 225 141 138 113 117 272 93 104 81 93 101 89 88 82 91 93 80 80 100 135 83 148 168 211 283 288 9 150 231 233 239 225 224 224 229 231 248 228 230
321 11 25 352 359 0 36 32 127 114 91 193 122 171 132 106 93 75 89 80 88 91 80 84 88 89 91 129 200 227 251 247 341 24 37 253 245 234 238 231 227 232 232 234
73 59 109 151 218 216 353 354 66 112 111 157 91 141 162 143 135 120 75 84 96 106 91 91 78 72 95 108 167 195 204 213 222 240 274 290 315 304 246 247 241 235 236 238
91 84 26 346 359 41 42 359 334 132 177 132 164 143 154 142 133 129 119 108 89 89 84 79 74 71 78 78 90 105 101 107 170 188 192 219 269 266 308 299 257 237 240 245
356 358 45 7 0 38 48 16 28 107 113 79 120 104 137 130 124 121 114 114 103 95 93 90 91 82 76 83 73 75 79 92 163 169 136 203 222 222 242 260 284 306 252 244
42 67 52 335 340 3 28 343 12 44 62 135 126 143 139 137 132 131 126 120 119 109 94 86 85 76 70 82 86 81 75 77 77 72 69 85 120 145 207 233 245 278 284 251
95 49 73 156 5 58 246 287 95 72 60 103 118 135 132 126 112 107 115 114 108 97 94 82 89 86 76 73 91 76 67 57 55 55 57 59 72 77 74 55 66 320 319 303
76 102 50 109 135 291 33 335 304 118 34 129 126 119 117 117 107 98 121 114 111 102 87 91 96 94 83 77 93 81 63 53 46 36 34 33 38 52 56 48 35 29 6 340
55 72 111 82 104 179 138 353 352 78 72 171 130 136 135 130 120 149 128 112 100 90 90 92 93 90 89 92 91 79 59 45 27 21 22 25 25 26 24 18 17 14 8 349
353 9 112 78 205 346 337 338 73 154 224 157 159 153 150 123 143 131 125 101 98 98 97 98 91 86 85 87 85 73 55 35 9 360 6 16 18 15 10 2 6 1 7 8
125 64 17 144 144 186 324 355 154 238 344 126 126 118 104 116 116 120 113 112 103 97 95 97 90 82 77 69 66 65 58 32 8 2 357 360 9 12 6 358 348 355 360 4
344 172 173 143 205 242 324 98 61 94 89 63 110 114 122 123 125 123 120 114 113 110 103 100 95 87 76 71 63 54 36 29 33 35 32 27 18 17 18 21 17 0 353 351
320 128 99 74 321 43 82 92 106 99 99 101 92 117 124 129 131 125 125 123 116 113 107 103 96 83 74 67 63 58 46 29 19 25 23 19 13 5 6 3 6 7 8 4
203 58 143 47 287 57 13 104 135 113 112 107 97 106 119 118 127 127 123 121 126 124 119 115 108 97 85 80 76 77 57 39 38 32 22 16 13 11 5 0 358 356 0 1
352 168 137 208 239 206 241 193 159 136 138 142 126 108 123 127 128 127 126 132 131 130 130 125 118 113 104 91 78 61 58 45 36 30 22 15 13 9 3 355 338 332 334 328